Location: Starlight Observatory
(38.4029°N, 85.8936°W)
Time: 18:54:02
(UTC-04:00)

Iridium 62 - Visible Passes

Search period start: 24 April 2017 00:00
Search period end: 04 May 2017 00:00
Orbit: 776 x 779 km, 86.4° (Epoch: 23 April)

Date Brightness Start Highest point End Pass type
(mag) Time Alt. Az. Time Alt. Az. Time Alt. Az.
24 Apr 8.0 02:58:05 18° ENE 02:58:05 18° ENE 03:01:22 10° NE visible
24 Apr 6.2 04:38:34 47° WNW 04:38:34 47° WNW 04:43:17 10° N visible
25 Apr 5.9 04:05:14 72° N 04:05:14 72° N 04:09:55 10° N visible
26 Apr 6.7 03:31:54 45° ENE 03:31:54 45° ENE 03:36:13 10° NNE visible
26 Apr 7.4 05:12:22 18° WNW 05:12:22 18° WNW 05:15:42 10° NW visible
27 Apr 7.6 02:58:32 25° ENE 02:58:32 25° ENE 03:02:08 10° NNE visible
27 Apr 6.8 04:39:00 32° WNW 04:39:00 32° WNW 04:43:07 10° NNW visible
28 Apr 8.3 02:25:10 14° ENE 02:25:10 14° ENE 02:27:13 10° NE visible
28 Apr 6.2 04:05:39 54° NW 04:05:39 54° NW 04:09:58 10° N visible
29 Apr 6.4 03:32:17 55° NNE 03:32:17 55° NNE 03:36:28 10° N visible
29 Apr 7.8 05:12:45 12° WNW 05:12:45 12° WNW 05:14:32 10° NW visible
30 Apr 7.2 02:58:54 34° ENE 02:58:54 34° ENE 03:02:38 10° NNE visible
30 Apr 7.3 04:39:22 22° WNW 04:39:22 22° WNW 04:42:45 10° NNW visible
01 May 7.9 02:25:30 19° ENE 02:25:30 19° ENE 02:28:19 10° NE visible
01 May 6.7 04:05:58 37° NW 04:05:58 37° NW 04:09:53 10° NNW visible
02 May 8.5 01:52:06 10° ENE 01:52:06 10° ENE 01:52:12 10° ENE visible
02 May 6.4 03:32:35 53° NNW 03:32:35 53° NNW 03:36:35 10° N visible
03 May 6.8 02:59:10 43° NE 02:59:10 43° NE 03:02:58 10° NNE visible
03 May 7.7 04:39:38 15° WNW 04:39:38 15° WNW 04:42:03 10° NW visible
